Flag for United Kingdom Weather past 2 weeks in Whitstable, England, United Kingdom

Now
51 °F

Fog.


Feels Like: 47 °F
Forecast: 49 / 61 °F
Wind: 10 mph from Northeast

Location: Manston


UV Index: 3 (Moderate)

Visibility: 3 mi


Pressure: 30.00 "Hg

Humidity: 94%

Dew point: 49 °F

Location of WhitstableLocation

Historic Weather in Whitstable

°F

Whitstable temperature yesterday

Maximum temperature yesterday: 59 °F (at 4:00 PM)
Minimum temperature yesterday: 49 °F (at 5:00 AM)
Average temperature yesterday: 53 °F

Past Weeks' High & Low Weather Summary

 TemperatureHumidityPressure
High63 °F (Apr 17, 1:00 PM)100% (Apr 11, 11:00 PM)30.46 "Hg (Apr 11, 11:00 PM)
Low40 °F (Apr 15, 10:00 PM)48% (Apr 13, 5:00 PM)29.63 "Hg (Apr 20, 4:00 PM)
Average50 °F79%30.08 "Hg
* Reported Apr 9 10:00 PM — Apr 24 10:00 PM, Whitstable, Weather by CustomWeather, © 2014

Note: Actual official high and low records may vary slightly from our data, if they occured in-between our weather recording intervals... More about our weather records

Advertising

Historic Weather Conditions — Data for Previous 24 hours

 ConditionsComfort  
Time TempWeatherWind HumidityBarometerVisibility
10:00 PM
Apr 24
50 °FFog.9 mph96%30.02 "Hg3 mi
9:00 PM50 °FSmoke.7 mph89%30.03 "Hg5 mi
8:00 PM53 °FCool.7 mph79%30.03 "Hg12 mi
7:00 PM55 °FCool.8 mph72%30.05 "Hg19 mi
6:00 PM56 °FCool.9 mph72%30.04 "Hg17 mi
5:00 PM56 °FCool.10 mph72%30.06 "Hg17 mi
4:00 PM59 °FCool.7 mph71%30.07 "Hg15 mi
3:00 PM58 °FCool.6 mph74%30.09 "Hg17 mi
2:00 PM58 °FCool.9 mph75%30.11 "Hg14 mi
1:00 PM58 °FCool.8 mph76%30.11 "Hg14 mi
12:00 PM56 °FCool.7 mph81%30.12 "Hg12 mi
11:00 AM56 °FCool.3 mph79%30.13 "Hg12 mi
10:00 AM55 °FCool.2 mph81%30.14 "Hg12 mi
9:00 AM53 °FSmoke.2 mph93%30.14 "Hg6 mi
8:00 AM52 °FFog.3 mph100%30.13 "Hg3 mi
7:00 AM49 °FCool.1 mph100%30.13 "Hg2 mi
6:00 AM49 °FFog.3 mph100%30.12 "Hg1 mi
5:00 AM49 °FFog.5 mph99%30.12 "Hg2 mi
4:00 AM50 °FCool.5 mph97%30.12 "Hg2 mi
3:00 AM50 °FFog.6 mph97%30.12 "Hg4 mi
2:00 AM51 °FCool.3 mph95%30.12 "Hg7 mi
1:00 AM52 °FCool.5 mph91%30.13 "Hg12 mi
12:00 AM52 °FCool.5 mph89%30.12 "Hg14 mi
Weather by CustomWeather, © 2014

See weather overview